sat.trackr.live / text

‹ back to catalog

HULIANWANG DIGUI-106

NORAD 66916 · 2025-285B

PAYLOAD ACTIVE UNKNOWN

§ Identity

Operator
Country
PRC
Launch date
2025-12-06
Launch site
WSC
Launch vehicle
Mass (kg)
RCS (m²)

External: N2YO · Heavens-Above · Gunter

§ Orbital elements

Epoch: 2026-05-25T03:54:16.708032Z

Period
108.33 min
Inclination
50.0058°
Eccentricity
0.0001125
Mean motion
13.29322788 rev/d
Perigee alt
1,148.5 km
Apogee alt
1,150.2 km
Semi-major
7,527.5 km
B*
3.3400e-5
RAAN
228.7387°
Arg perigee
210.5757°
Mean anomaly
149.5050°
Rev number
2,299

§ Raw data

HULIANWANG DIGUI-1061 66916U 25285B   26145.16269338 -.00000109  00000+0  33400-4 0  99902 66916  50.0058 228.7387 0001125 210.5757 149.5050 13.29322788 22992

JSON: /api/v1/satellites/66916 · /tle

For live sub-satellite position, see the globe view (requires WebGL).

§ Visibility from observer

Set your observer location to see the next 7 days of passes ≥ 10°. The values pass through the URL so the page stays shareable.

No JS? Fill the form by hand. The geolocation button needs JavaScript.